Voltar ao catálogo

BLOCK DM-SL DEB

AtivoGEO
NORAD 46091·DEBRIS·🇷🇺 Russia

Lançado Dec 24, 2019 de Baikonur Cosmodrome

Loading…

TLE

AtualizadoSource: Space-Track

Época: Sep 13, 2026, 14:48 UTC

1 46091U 19095E   26256.61724406 -.00000102  00000-0  00000-0 0  9999
2 46091   5.5369  72.1962 0049854 191.9857 168.1391  1.03274791 24657

Acompanhe BLOCK DM-SL DEB em tempo real com AllMySat

Download on the App Store